Showing default

ORBITER SN3, 56960

Orbit data source: Space-Track

ORBITER SN3, 56960 is a payload satellite owned by Launcher Inc (US) in SSO that was launched on Mon, 12 Jun 2023 UTC via an FALCON 9 launch vehicle from the Air Force Western Test Range (AFWTR). Payload-class satellites include a variety of spacecraft equipped with specific instruments for various scientific and technological missions. These include communications satellites like Starlink; space stations such as the ISS; scientific satellites like the Hubble; Earth observation satellites from companies like Planet Labs, Umbra, and HawkEye 360; GPS; miniature CubeSats for education and research; and military/defense satellites.

Loading next visibility...
Identifier
56960, 2023-084AE
Orbit
SSO
Country
Flag of USUS
Related business
Manufacturer
Launcher Inc
Mission
Operational Commercial Technology
Bus & Motor
LAORB1, AOCS
Mass
223 kg wet, ~150 kg dry
Launch date (UTC)
2023-06-12 (3 years ago)
Launch vehicle
FALCON 9
Launch site
Air Force Western Test Range (AFWTR)
Object type
Payload
Rocket body
Debris
Shape & HBR
Oct Cyl, 0.5 m
Radar Cross Section
0.583 m², Large (>1 m²)

Expand to show TLE details & history
Last TLE update: 6 days ago

TLE from 6 days ago
0 ORBITER SN3
1 56960U 23084AE  26155.28208348  .00009183  00000-0  27754-3 0  9996
2 56960  97.6262 295.6726 0008234  27.6644 332.5035 15.34436786165519
Epoch: 2026-06-04T06:46Z
TLE epoch observation values (Epoch: 2026-06-04T06:46:12.012Z)
Latitude
-0.00002°
Longitude
-58.60604°
Altitude
460.701 km
Speed
7.639 km/s
True Right ascension
19h 42m 41s
True Declination
0° 00' 00"
Sunlit
Object was in full shadow at epoch
Visualization orbit readout
Latitude
Unknown
Longitude
Unknown
Altitude
Unknown
Speed
Unknown
Apparent Right ascension
Unknown
Apparent Declination
Unknown
Sunlit
N/A
Visualization observer readout
Local Sidereal Time
14:06:54
Azimuth
Unknown
Elevation
Unknown
Doppler factor
Unknown
Orbital elements
Apogee altitude
465.18 km
Perigee altitude
453.92 km
Semi-major axis
6,837.687 km
Eccentricity
0.00082
Inclination
97.6262°
RAAN
295.6726°
Arg. of periapsis
27.6644°
True anomaly
332.4599°
Mean anomaly
332.5035°
Eccentric anomaly
332.4817°
Mean motion
3.83866 °/min
Orbital period
93.78 mins
BSTAR
0.00027754
Loading maneuver chart data...
Computing Atmospheric mass density...

Documentation

Showing up to 5 results
|